Location: Caltech
(34.1382°N, 118.1253°W)
Time: 08:33:32
(UTC-08:00)

Cosmos 1833 - Visible Passes

Search period start: 22 November 2014 00:00
Search period end: 02 December 2014 00:00
Orbit: 840 x 859 km, 70.9° (Epoch: 21 November)

Date Brightness Start Highest point End Pass type
(mag) Time Alt. Az. Time Alt. Az. Time Alt. Az.
22 Nov 5.9 05:34:14 10° N 05:39:17 31° ENE 05:44:18 10° ESE visible
23 Nov 5.9 05:21:33 10° N 05:26:36 31° ENE 05:31:35 10° ESE visible
24 Nov 5.9 05:08:52 10° N 05:13:54 31° ENE 05:18:53 10° ESE visible
25 Nov 5.9 04:56:11 10° N 05:01:12 30° ENE 05:06:10 10° ESE visible
25 Nov 6.4 19:44:17 10° SSW 19:45:36 18° SSW 19:45:36 18° SSW visible
26 Nov 5.9 04:43:30 10° N 04:48:31 30° ENE 04:53:28 10° ESE visible
26 Nov 6.1 17:51:28 10° ESE 17:52:18 11° ESE 17:52:18 11° ESE visible
26 Nov 5.7 19:31:35 10° SSW 19:34:21 30° SW 19:34:21 30° SW visible
27 Nov 5.9 04:30:50 10° N 04:35:49 30° ENE 04:40:45 10° ESE visible
27 Nov 5.9 17:38:51 10° ESE 17:41:02 12° E 17:41:02 12° E visible
27 Nov 4.9 19:18:53 10° SSW 19:23:05 50° SW 19:23:05 50° SW visible
28 Nov 5.9 04:18:32 12° N 04:23:07 30° ENE 04:28:03 10° ESE visible
28 Nov 5.0 06:02:14 10° NW 06:07:16 32° WSW 06:12:15 10° SSW visible
28 Nov 5.9 17:26:13 10° ESE 17:28:23 12° E 17:29:45 11° E visible
28 Nov 4.3 19:06:11 10° SSW 19:11:48 71° WNW 19:11:48 71° WNW visible
29 Nov 5.9 04:07:00 17° NNE 04:10:25 29° ENE 04:15:20 10° ESE visible
29 Nov 4.9 05:49:32 10° NW 05:54:35 33° WSW 05:59:35 10° SSW visible
29 Nov 6.0 17:13:36 10° ESE 17:15:42 12° E 17:17:48 10° ENE visible
29 Nov 4.3 18:53:30 10° SSW 18:59:10 72° WNW 19:00:26 53° N visible
30 Nov 5.9 03:55:33 23° NNE 03:57:43 29° ENE 04:02:37 10° ESE visible
30 Nov 4.9 05:37:36 14° NW 05:41:53 33° WSW 05:46:54 10° SSW visible
30 Nov 4.3 18:40:48 10° SSW 18:46:28 73° WNW 18:49:01 34° N visible
01 Dec 5.8 03:44:11 28° NE 03:45:02 29° ENE 03:49:54 10° ESE visible
01 Dec 4.9 05:26:14 21° NW 05:29:12 33° WSW 05:34:13 10° SSW visible
01 Dec 4.4 18:28:06 10° SSW 18:33:46 73° WNW 18:37:30 23° NNE visible
